DateTimeUTC,F1_A11,F1_S11,BsB_S11,BsG_S11,BsR_S11,BbsB_S11,BbsG_S11,BbsR_S11,BaB_A11,BaG_A11,BaR_A11,Tu_S11,T_S11,Uu_S11,U_S11,P_S11,T1_A11
2021-11-22T23:00:00Z,00000200,21000000,,,,,,,0000.12,-000.12,-000.12,19.3,26.2,,00.0,0634.6,30.9
2021-11-22T23:01:00Z,00000200,21000000,,,,,,,-000.14,0000.16,-000.17,19.2,26.2,,00.0,0634.6,30.9
2021-11-22T23:02:00Z,00000200,21000000,,,,,,,0000.06,-000.07,0000.12,19.2,26.1,,00.0,0634.6,30.9
2021-11-22T23:03:00Z,00000200,61000000,,,,,,,0000.22,-000.02,-000.07,19.2,26.1,,00.0,0634.6,30.9
2021-11-22T23:04:00Z,00000200,41000000,0000.29,-000.02,0000.04,0000.54,-000.16,-000.23,0000.04,0000.28,0000.14,19.2,25.9,,00.0,0635.5,30.9
2021-11-22T23:05:00Z,00000200,01000000,0000.46,0000.11,0000.12,0000.73,-000.17,0000.00,-000.06,-000.04,-000.21,19.3,25.9,,00.0,0635.5,30.9
2021-11-22T23:06:00Z,00000200,01000000,-000.75,0000.36,0000.13,0000.48,-000.05,0000.23,-000.03,-000.20,0000.26,19.4,25.9,,00.0,0635.6,30.9
2021-11-22T23:07:00Z,00000200,01000000,-000.45,0000.22,0000.01,0000.57,-000.38,0000.03,-000.00,0000.23,-000.24,19.4,25.9,,00.0,0635.6,30.9
2021-11-22T23:08:00Z,00000200,01000000,0000.58,0000.07,0000.03,0000.22,0000.01,-000.31,-000.13,-000.16,0000.11,19.5,25.9,,00.0,0635.6,30.9
2021-11-22T23:09:00Z,00000200,01000000,0000.33,0000.18,0000.08,0000.38,0000.03,0000.25,0000.13,0000.13,0000.06,19.5,25.9,,00.0,0635.6,30.9
2021-11-22T23:10:00Z,00000200,01000000,-000.31,-000.04,-000.08,-000.10,-000.12,0000.22,0000.08,-000.15,-000.48,19.6,25.9,,00.0,0635.7,30.9
2021-11-22T23:11:00Z,00000200,01000000,-000.78,-000.16,0000.30,0000.50,-000.12,0000.25,-000.24,0000.04,0000.35,19.6,26.0,,00.0,0635.7,30.9
2021-11-22T23:12:00Z,00000200,01000000,-000.11,-000.01,0000.14,0000.61,0000.12,0000.37,0000.14,-000.26,-000.16,19.6,26.0,,00.0,0635.7,30.9
2021-11-22T23:13:00Z,00000200,01000000,0000.38,0000.04,0000.10,0000.27,0000.23,0000.04,-000.18,0000.33,0000.33,19.6,26.0,,00.0,0635.7,30.9
2021-11-22T23:14:00Z,00000200,01000000,-000.22,0000.12,0000.31,-000.75,-000.36,0000.13,-000.16,-000.33,-000.12,19.5,26.0,,00.0,0635.7,30.9
2021-11-22T23:15:00Z,00000200,01000000,-000.45,0000.20,-000.15,0000.22,0000.03,0000.10,0000.24,-000.02,-000.14,19.4,25.9,,00.0,0635.7,30.9
2021-11-22T23:16:00Z,00000200,01000000,0000.14,0000.03,0000.00,0000.78,0000.01,0000.03,-000.27,-000.17,0000.18,19.3,25.9,,00.0,0635.8,30.9
2021-11-22T23:17:00Z,00000200,01000000,-000.04,-000.12,0000.15,0000.72,0000.17,0000.02,-000.11,0000.04,-000.77,19.2,25.8,,00.0,0635.7,30.9
2021-11-22T23:18:00Z,00000200,01000000,0000.47,0000.02,0000.05,0000.46,0000.03,0000.04,0000.21,0000.16,0000.41,19.2,25.8,,00.0,0635.8,30.8
2021-11-22T23:19:00Z,00000200,01000000,0000.63,-000.04,-000.04,0000.33,0000.06,-000.04,0000.06,0000.29,0000.06,19.2,25.8,,00.0,0635.8,30.9
2021-11-22T23:20:00Z,00000200,01000000,-000.17,0000.25,0000.26,0000.07,-000.22,0000.15,0000.13,-000.43,0000.00,19.3,25.8,,00.0,0635.8,30.9
2021-11-22T23:21:00Z,00000200,01000000,0000.40,0000.03,0000.41,0000.58,-000.20,-000.06,-000.11,0000.53,0000.00,19.3,25.8,,00.0,0635.9,30.9
2021-11-22T23:22:00Z,00000200,01000000,-000.43,0000.40,0000.11,0000.04,0000.10,-000.11,0000.09,-000.59,-000.36,19.4,25.8,,00.0,0635.9,30.9
2021-11-22T23:23:00Z,00000200,01000000,0000.18,0000.30,0000.33,0000.61,-000.16,0000.48,-000.11,0000.03,0000.12,19.4,25.8,,00.0,0635.9,30.9
2021-11-22T23:24:00Z,00000200,01000000,-000.21,0000.19,-000.29,0000.43,-000.24,-000.15,-000.03,-000.11,-000.05,19.5,25.8,,00.0,0636.0,30.9
2021-11-22T23:25:00Z,00000200,01000000,0000.17,-000.28,-000.01,0000.37,0000.11,-000.12,-000.12,0000.32,0000.04,19.5,25.9,,00.0,0636.0,30.9
2021-11-22T23:26:00Z,00000200,01000000,0000.48,-000.16,-000.06,-000.08,-000.32,-000.11,-000.16,-000.02,-000.13,19.6,25.9,,00.0,0636.0,30.9
2021-11-22T23:27:00Z,00000200,01000000,0000.50,-000.07,-000.15,0000.41,-000.03,0000.03,0000.01,-000.26,-000.09,19.6,25.9,,00.0,0636.1,30.9
2021-11-22T23:28:00Z,00000200,01000000,0000.18,-000.02,0000.25,0000.04,-000.08,-000.00,-000.07,-000.23,0000.15,19.6,25.9,,00.0,0636.1,30.9
2021-11-22T23:29:00Z,00000200,01000000,-000.16,0000.05,-000.11,0000.32,-000.31,0000.12,-000.07,-000.17,-000.21,19.5,25.9,,00.0,0636.1,30.9
2021-11-22T23:30:00Z,00000200,01000000,0000.51,0000.00,0000.08,0000.22,-000.03,0000.08,-000.10,0000.11,0000.14,19.4,25.9,,00.0,0636.1,30.9
2021-11-22T23:31:00Z,00000200,01000000,0000.11,-000.08,-000.07,-000.48,-000.35,-000.27,-000.04,0000.09,0000.00,19.3,25.9,,00.0,0636.1,30.9
2021-11-22T23:32:00Z,00000200,01000000,-000.65,-000.20,0000.10,0000.63,-000.00,-000.02,-000.21,-000.30,-000.32,19.3,25.8,,00.0,0636.1,30.8
2021-11-22T23:33:00Z,00000200,01000000,0000.06,-000.09,0000.05,0000.06,-000.20,0000.09,0000.24,0000.46,-000.05,19.2,25.8,,00.0,0636.1,30.8
2021-11-22T23:34:00Z,00000200,01000000,0000.53,-000.17,0000.13,0000.23,-000.39,-000.07,-000.02,-000.13,-000.00,19.3,25.8,,00.0,0636.2,30.9
2021-11-22T23:35:00Z,00000200,01000000,0000.20,-000.31,-000.29,0000.71,-000.16,0000.12,-000.05,-000.02,0000.15,19.3,25.8,,00.0,0636.2,30.9
2021-11-22T23:36:00Z,00000200,01000000,-000.45,0000.09,-000.14,0000.58,-000.18,-000.33,0000.01,-000.04,-000.41,19.3,25.8,,00.0,0636.2,30.9
2021-11-22T23:37:00Z,00000200,01000000,-000.44,0000.14,-000.05,0000.57,-000.40,0000.04,0000.23,0000.01,0000.42,19.4,25.8,,00.0,0636.2,30.9
2021-11-22T23:38:00Z,00000200,01000000,-000.78,0000.37,0000.29,0000.46,-000.16,0000.32,-000.22,-000.32,-000.09,19.4,25.8,,00.0,0636.3,30.9
2021-11-22T23:39:00Z,00000200,01000000,0000.31,-000.14,0000.07,0000.15,-000.29,0000.15,-000.12,0000.42,-000.04,19.5,25.8,,00.0,0636.3,30.9
2021-11-22T23:40:00Z,00000200,01000000,0000.33,0000.27,0000.14,0000.75,0000.07,-000.29,0000.34,-000.17,-000.02,19.5,25.9,,00.0,0636.4,30.9
2021-11-22T23:41:00Z,00000200,01000000,-000.00,0000.09,0000.22,0000.35,-000.13,-000.11,-000.54,-000.12,0000.09,19.6,25.9,,00.0,0636.4,30.9
2021-11-22T23:42:00Z,00000200,01000000,-000.22,-000.06,-000.07,0000.33,0000.09,0000.26,0000.07,-000.27,-000.32,19.6,25.9,,00.0,0636.4,30.9
2021-11-22T23:43:00Z,00000200,01000000,-000.20,0000.13,-000.06,0000.10,0000.02,0000.25,-000.16,-000.19,-000.21,19.6,25.9,,00.0,0636.4,30.9
2021-11-22T23:44:00Z,00000200,01000000,0000.17,-000.09,0000.19,0000.29,0000.34,0000.19,0000.13,-000.18,0000.18,19.5,25.9,,00.0,0636.4,30.9
2021-11-22T23:45:00Z,00000200,01000000,0000.32,-000.09,0000.09,0000.64,-000.08,-000.04,-000.03,0000.45,-000.15,19.4,25.9,,00.0,0636.3,30.9
2021-11-22T23:46:00Z,00000200,01000000,-000.08,-000.31,0000.18,0000.07,-000.10,0000.11,0000.02,-000.25,-000.01,19.3,25.8,,00.0,0636.3,30.9
2021-11-22T23:47:00Z,00000200,01000000,0000.45,-000.32,0000.01,0000.10,-000.23,-000.04,-000.25,0000.05,0000.20,19.3,25.8,,00.0,0636.3,30.9
2021-11-22T23:48:00Z,00000200,01000000,-000.22,0000.27,0000.16,0000.44,0000.41,-000.24,0000.53,0000.44,-000.03,19.2,25.8,,00.0,0636.3,30.9
2021-11-22T23:49:00Z,00000200,01000000,0000.18,0000.14,-000.09,0000.50,-000.15,0000.19,-000.24,-000.30,-000.17,19.2,25.8,,00.0,0636.4,30.9
2021-11-22T23:50:00Z,00000200,01000000,0000.14,-000.11,0000.04,0000.68,-000.20,-000.01,0000.31,0000.32,0000.31,19.3,25.8,,00.0,0636.4,30.9
2021-11-22T23:51:00Z,00000200,01000000,0000.44,0000.26,0000.12,0000.04,-000.11,0000.30,0000.13,0000.07,0000.17,19.3,25.8,,00.0,0636.4,30.9
2021-11-22T23:52:00Z,00000200,01010000,0000.56,0000.09,-000.28,0000.14,-000.01,0000.01,-000.05,-000.30,-000.22,19.4,25.8,,00.0,0636.4,30.9
2021-11-22T23:53:00Z,00000200,01000000,0000.03,-000.05,0000.09,0000.61,-000.00,0000.19,0000.03,0000.35,0000.22,19.4,25.8,,00.0,0636.4,30.9
2021-11-22T23:54:00Z,00000200,01000000,-000.00,0000.07,0000.17,0000.09,-000.09,0000.19,0000.08,-000.03,0000.03,19.5,25.8,,00.0,0636.5,30.9
2021-11-22T23:55:00Z,00000200,01000000,0000.14,0000.16,-000.03,0000.52,-000.03,-000.02,-000.41,-000.21,-000.18,19.5,25.8,,00.0,0636.5,30.9
2021-11-22T23:56:00Z,00000200,01000000,-000.23,0000.14,0000.17,0000.60,-000.20,-000.03,-000.22,-000.09,-000.15,19.5,25.8,,00.0,0636.5,30.9
2021-11-22T23:57:00Z,00000200,41000000,,,,,,,0000.92,0000.45,0000.49,19.6,25.9,,00.0,0636.6,30.9
2021-11-22T23:58:00Z,00000200,61000000,,,,,,,-000.39,-000.06,0000.11,19.1,25.9,,00.0,0635.6,30.9
2021-11-22T23:59:00Z,00000200,21000000,,,,,,,-000.49,-000.57,-000.68,19.1,26.0,,00.0,0635.6,30.9
